Regional Weather Roundup
Issued by NWS

Home | Current Version | Previous Version | Graphics & Text | Print | Product List | Glossary On
Versions: 1 2 3 4 5 6 7 8 9 10 11 12 13 14 15 16 17 18 19 20 21 22 23 24 25 26 27 28 29 30 31 32 33 34 35 36 37 38 39 40 41 42 43 44 45 46 47 48 49 50
000
ASUS43 KMKX 261700
RWRWI

WISCONSIN REGIONAL WEATHER ROUNDUP
NATIONAL WEATHER SERVICE MILWAUKEE/SULLIVAN WI
1200 PM CDT SUN APR 26 2015

NOTE: "FAIR" INDICATES FEW OR NO CLOUDS BELOW 12,000 FEET WITH NO
SIGNIFICANT WEATHER AND/OR OBSTRUCTIONS TO VISIBILITY.

WIZ001-002-006>008-014>016-023>028-261800-
NORTHWEST WISCONSIN

CITY           SKY/WX    TMP DP  RH WIND       PRES   REMARKS
SUPERIOR ARPT  SUNNY     45  20  37 NE8       30.20S
ASHLAND        SUNNY     50  29  44 N12       30.19R
HAYWARD        SUNNY     53  20  27 NE8       30.14S
SIREN          SUNNY     53  19  26 N5        30.14S
CUMBERLAND     SUNNY     50  19  29 CALM      30.13S
RICE LAKE      SUNNY     53  21  28 N5        30.14S
CHETEK         SUNNY     51  23  32 E6        30.12F
LADYSMITH      SUNNY     53  22  30 N7        30.13F
EAU CLAIRE     NOT AVBL
MENOMONIE      SUNNY     54  21  27 CALM      30.12F
NEW RICHMOND   SUNNY     53  21  28 CALM      30.14S
OSCEOLA        SUNNY     53  23  31 E3        30.16S
$$

WIZ003>005-009-010-017-018-261800-
NORTH CENTRAL WISCONSIN

CITY           SKY/WX    TMP DP  RH WIND       PRES   REMARKS
MANITOWISH WTR SUNNY     50  19  29 N9        30.10F
ARBOR VITAE    SUNNY     52  18  25 NE10G18   30.09F
WOODRUFF       SUNNY     52  18  25 NE10G18   30.09F
RHINELANDER    SUNNY     53  19  26 N8        30.09S
EAGLE RIVER    SUNNY     52  15  23 N9G20     30.08F
LAND O LAKES   SUNNY     50  18  28 N14G21    30.10S
PHILLIPS       SUNNY     51  22  31 NE9       30.10F
TOMAHAWK       SUNNY     53  20  27 CALM      30.09F
MEDFORD        SUNNY     51  23  33 E5        30.09F
MERRILL        SUNNY     53  23  30 NE9G16    30.08F
$$

WIZ029-030-035-036-043>047-261800-
CENTRAL WISCONSIN

CITY           SKY/WX    TMP DP  RH WIND       PRES   REMARKS
WAUSAU         SUNNY     55  22  27 NW8       30.06F
MOSINEE        NOT AVBL
MARSHFIELD     SUNNY     55  23  28 NE10      30.09S
STEVENS POINT  SUNNY     51  21  31 CALM      30.09S
WAUPACA        SUNNY     57  21  24 NE8       30.08S
WAUTOMA        NOT AVBL
WISC RAPIDS    SUNNY     54  18  24 NE6       30.10S
CAMP DOUGLAS   NOT AVBL
$$

WIZ011>013-019>022-031-037>040-048>050-261800-
NORTHEAST WISCONSIN

CITY           SKY/WX    TMP DP  RH WIND       PRES   REMARKS
ANTIGO         SUNNY     53  23  31 NE7       30.07F
SHAWANO        SUNNY     58  24  27 NE7       30.07S
OCONTO         SUNNY     54  26  34 NE8       30.06F
STURGEON BAY   SUNNY     50  25  37 N16       30.09S
GREEN BAY      SUNNY     55  30  38 NE9       30.07S
MANITOWOC      NOT AVBL
APPLETON       SUNNY     54  21  28 N8        30.07S
CLINTONVILLE   SUNNY     54  21  28 N8        30.06F
OSHKOSH        SUNNY     54  26  34 N7        30.06F
$$

WIZ032>034-041-042-053>061-261800-
SOUTHWEST WISCONSIN

CITY           SKY/WX    TMP DP  RH WIND       PRES   REMARKS
LA CROSSE      SUNNY     55  25  31 VRB6      30.10F
SPARTA         SUNNY     54  21  27 CALM      30.10F
VIROQUA        SUNNY     53  25  34 N9        30.08F
BOSCOBEL       SUNNY     56  23  27 E6        30.09F
PRAIRIE DU CHI SUNNY     53  24  32 E3        30.09S
PLATTEVILLE    SUNNY     52  28  39 E5        30.07S
$$

WIZ056-057-062-063-064-067-068-261800-
SOUTH CENTRAL WISCONSIN

CITY           SKY/WX    TMP DP  RH WIND       PRES   REMARKS
REEDSBURG      SUNNY     51  26  37 CALM      30.08F
BARABOO/DELLS  SUNNY     51  23  33 NE6       30.08F
LONE ROCK      NOT AVBL
MINERAL POINT  SUNNY     52  27  37 NE3       30.07F
MADISON        MOSUNNY   53  27  36 NE5       30.07F
MIDDLETON      SUNNY     53  27  37 NE7       30.08F
WATERTOWN      SUNNY     53  28  38 N8        30.06S
MONROE         SUNNY     52  32  46 NE8       30.06S
JANESVILLE     SUNNY     55  25  30 NE6       30.05F
$$

WIZ051-052-058>065-066-070>072-261800-
SOUTHEAST WISCONSIN

CITY           SKY/WX    TMP DP  RH WIND       PRES   REMARKS
MILWAUKEE      SUNNY     47  32  56 NE9       30.06F
WAUKESHA       SUNNY     54  25  32 NE12      30.05F
MILWAUKEE/TIMM NOT AVBL
RACINE         SUNNY     47  29  49 N10       30.07F
BURLINGTON     SUNNY     53  26  36 E6        30.04S
KENOSHA        SUNNY     52  29  41 N9        30.05S
FOND DU LAC    SUNNY     55  27  34 NE12      30.07S
SHEBOYGAN      SUNNY     51  33  50 E13       30.05S
WEST BEND      SUNNY     52  23  32 N9        30.04F
JUNEAU         SUNNY     52  27  38 N13       30.07S
$$

LSZ147-162-261800-
LAKE SUPERIOR

STATION/POSITION TIME  TEMP    WIND        PRES    WAVE
                       AIR SEA DIR/SP/G            HT/PER
                 (UTC) (F)     (DEG/KT/KT) (MB)    (FT/S)
W MID LAKE BUOY  1550   36 35   30/ 10/ 12 1023.9R   1/ 3
DEVILS ISLAND    1600   37      70/  8/  9 1023.5R
PORT WING        1600   36     330/  6/  7 1022.7
SAXON HARBOR     1640   38      10/  4/  5 1022.0R
$$

LMZ867-665-643>646-261800-
LAKE MICHIGAN

STATION/POSITION TIME  TEMP    WIND        PRES    WAVE
                       AIR SEA DIR/SP/G            HT/PER
                 (UTC) (F)     (DEG/KT/KT) (MB)    (FT/S)
CHAMBERS ISLAND  1600   43      30/  4/  8 1018.6
NORTHPORT PIER   1600   41     320/  7/ 11 1018.3S
KEWAUNEE LAKESHO 1600   43      60/  6/ 10 1017.3R
SHEBOYGAN LAKESH 1600   39      30/ 12/ 14 1018.9R
PORT WASHINGTON  1640   43      50/ 10/ 13 1018.6S
MILWAUKEE LAKESH 1600   39      40/ 12/ 13   N/A
KENOSHA   LAKESH 1600   40      30/ 15/ 18 1017.6R
$$

TC  - TEMPERATURE IN CELSIUS
VSB - VISIBILITY IN STATUTE MILES
WCI - WIND CHILL INDEX
HX  - HEAT INDEX



USA.gov is the U.S. government's official web portal to all federal, state and local government web resources and services.